User: anonymous
Location: Watson Lake
(60.1170°N, 128.8000°W)
Time: 00:05:23
(UTC-07:00)
Language:

IGS 1A - Orbit

View from above orbital plane
View from above orbital plane
View from above satellite
View from above satellite

Ground track
Ground track

The orbit data is extracted from the following two-line orbital elements,

1 27698U 03009A   13252.91246431 0.00016000  00000-0  34147-3 0    09
2 27698  97.2858 329.1439 0002500 309.5076  50.4923 15.44890668    05
Epoch (UTC): 09 September 2013 21:53:56
Eccentricity: 0.0002500
inclination: 97.2858°
perigee height: 430 km
apogee height: 433 km
right ascension of ascending node: 329.1439°
argument of perigee: 309.5076°
revolutions per day: 15.44890668
mean anomaly at epoch: 50.4923°
orbit number at epoch: 0

The dashed part of the orbit path shows where the satellite is in the earth's shadow,  

DLR